Location: Makanda
(37.6176°N, 89.2090°W)
Time: 06:37:42
(UTC+00:00)

Meteor 1-24 Rocket - Pass Details

Date: 23 September 2019
Orbit: 791 x 926 km, 81.2° (Epoch: 17 October)

Event Time Altitude Azimuth Distance (km) Brightness Sun altitude
Rises 01:42:48 0° 355° (N) 3,491 7.2 -22.0°
Reaches altitude 10° 01:45:16 10° 359° (N) 2,566 6.4 -22.5°
Maximum altitude 01:51:05 62° 79° (E) 1,023 3.8 -23.6°
Enters shadow 01:52:07 53° 122° (ESE) 1,110 3.9 -23.8°
